Regional Weather Roundup
Issued by NWS

Home | Current Version | Previous Version | Graphics & Text | Print | Product List | Glossary On
Versions: 1 2 3 4 5 6 7 8 9 10 11 12 13 14 15 16 17 18 19 20 21 22 23 24 25 26 27 28 29 30 31 32 33 34 35 36 37 38 39 40 41 42 43 44 45 46 47 48 49 50
052
ASUS45 KTFX 241110
RWRMT
MONTANA REGIONAL WEATHER ROUNDUP
NATIONAL WEATHER SERVICE GREAT FALLS MT
500 AM MDT MON APR 24 2017

NOTE: "FAIR" INDICATES FEW OR NO CLOUDS BELOW 12000 FEET WITH NO
SIGNIFICANT WEATHER AND/OR OBSTRUCTIONS TO VISIBILITY.

MTZ001>007-043-241200-
WEST OF THE DIVIDE

CITY           SKY/WX    TMP DP  RH WIND       PRES   REMARKS
KALISPELL      CLOUDY    40  39  97 W3        29.69S
MISSOULA       CLOUDY    42  38  85 CALM      29.74S
BUTTE          LGT SNOW  33  32  96 CALM      29.73R FOG
MULLAN PASS    CLOUDY    29  29 100 SW6       29.68F FOG     WCI  23
ANACONDA         N/A     34  32  93 CALM      29.73S
DEER LODGE       N/A     37  36  93 SW3       29.75S
EUREKA           N/A     41  37  87 S6        29.68S
HAMILTON         N/A     39  36  87 S5        29.73F
LIBBY            N/A     41  41 100 CALM      29.69F
PLAINS           N/A     40  36  86 CALM      29.74F
$$

MTZ008-052>055-241200-
SOUTHWEST MONTANA

CITY           SKY/WX    TMP DP  RH WIND       PRES   REMARKS
BOZEMAN        CLOUDY    38  37  97 W3        29.69S
DILLON         CLOUDY    39  33  79 W5        29.70R
W YELLOWSTONE  CLOUDY    30  30 100 CALM      29.73F
ENNIS          CLOUDY    39  34  81 SE13G20   29.74S WCI  32
THREE FORKS      N/A     41  24  51 CALM      29.72S
TWIN BRIDGES     N/A     39  33  79 CALM      29.74R
$$

MTZ009-010-012-014-046-048-049-054-241200-
EAST SLOPES AND CENTRAL MONTANA

CITY           SKY/WX    TMP DP  RH WIND       PRES   REMARKS
CUT BANK       CLOUDY    37  31  78 SW6       29.64S
GREAT FALLS    PTCLDY    38  35  89 SW7       29.66S
MALMSTROM AFB  CLOUDY    38  36  95 SW7       29.66S
HELENA         CLOUDY    45  34  65 SW5       29.69S
AUGUSTA        CLOUDY    39  31  71 W5        29.65F
BOWMANS CRNR   MOCLDY    38  32  78 S5        29.65S
CHOTEAU          N/A     37  34  87 E3        29.67S
FAIRFIELD      CLOUDY    41  33  74 CALM      29.65S
POWER          MOCLDY    34  34  98 CALM      29.65S
RAYNESFORD     MOCLDY    38  35  89 CALM      29.66F
ULM            MOCLDY    38  36  92 CALM      29.66F
$$

MTZ011-013-016-021-045-047-050-051-241200-
NORTH CENTRAL MONTANA

CITY           SKY/WX    TMP DP  RH WIND       PRES   REMARKS
HAVRE          FOG       35  35 100 E5        29.66S VSB 1/4
LEWISTOWN      CLOUDY    37  36  96 N5        29.66S
N BAR RANCH    CLOUDY    39  36  87 NW10      29.68S
CHINOOK          N/A     36  36 100 E7        29.67F WCI  30
DENTON         MOCLDY    37  36  95 S9        29.63S WCI  31
FORT BENTON      N/A    N/A N/A N/A MISG      29.67S
GEYSER         MOCLDY    38  35  88 SW7       29.65F
GRASS RANGE    MOCLDY    40  37  89 SW15      29.62S
JUDITH GAP     MOCLDY    35  34  95 N5        29.66F
STANFORD       MOCLDY    40  34  79 W6        29.66F
WINIFRED       MOCLDY    39  38  96 W8        29.65S
$$

MTZ017>020-022>027-061-062-241200-
NORTHEAST MONTANA

CITY           SKY/WX    TMP DP  RH WIND       PRES   REMARKS
GLASGOW        CLOUDY    32  30  92 E8        29.69S WCI  25
JORDAN           N/A     38  35  89 NE6       29.65F
SIDNEY         MIX PCPN  32  30  92 NE6       29.71S WCI  26
WOLF POINT     CLOUDY    33  31  92 E9        29.71F WCI  25
MALTA          CLOUDY    36  34  93 E7        29.69R WCI  30
PLENTYWOOD       N/A     28  28 100 E9        29.72F WCI  20
POPLAR           N/A     30  28  93 E7        29.72F WCI  23
SCOBEY           N/A     29  22  75 E5        29.71F
$$

MTZ028>42-056>058-241200-
SOUTHCENTRAL AND SOUTHEAST MONTANA

CITY           SKY/WX    TMP DP  RH WIND       PRES   REMARKS
BAKER          MIX PCPN  32  29  88 CALM      29.66R
BILLINGS       CLOUDY    42  37  82 W7        29.66S
LIVINGSTON     CLOUDY    41  35  79 CALM      29.66F
MILES CITY     CLOUDY    41  38  89 N5        29.65S
BIG TIMBER     MOCLDY    41  37  87 W12       29.69F
EKALAKA          N/A     36  33  88 SW6       29.64R WCI  31
LAUREL           N/A     39  34  82 CALM      29.68R
ROUNDUP          N/A     41  37  85 S5        29.62R VSB 0
$$

REGIONAL REPORTS...DAKOTAS

CITY           SKY/WX    TMP DP  RH WIND       PRES   REMARKS
WILLISTON      LGT SNOW  31  29  92 NE6       29.72F FOG     WCI  25
MINOT          CLOUDY    30  27  88 NE9       29.73F WCI  22
DICKINSON      FRZ RAIN  28  27  96 E9        29.64S FOG     WCI  19
BEACH          DRIZZLE   30  30 100 E6        29.69S WCI  24
TIOGA          FLURRIES  27  27 100 E10       29.72S WCI  17
WATFORD CITY   MIX PCPN  30  30 100 E10       29.70S WCI  21
BISMARCK       CLOUDY    33  32  96 NE15      29.64F WCI  23
GRAND FORKS    CLOUDY    36  33  89 E13       29.75F WCI  27
FARGO          CLOUDY    36  30  79 NE7       29.66F WCI  30
BUFFALO SD       N/A     34  34 100 N15       29.55F WCI  24
RAPID CITY     CLOUDY    38  37  97 N15       29.59S WCI  29
$$

REGIONAL REPORTS...WYOMING/IDAHO/WASHINGTON

CITY           SKY/WX    TMP DP  RH WIND       PRES   REMARKS
GILLETTE       CLEAR     38  38 100 W9        29.65S WCI  31
SHERIDAN       CLEAR     37  35  92 SW3       29.67F
BUFFALO WY     CLEAR     40  34  79 NW7       29.67F
CODY           CLOUDY    40  34  79 W8        29.71R
YELLOWSTONE LA   N/A     26  26 100 CALM      29.76F
IDAHO FALLS    CLOUDY    46  37  71 SW10      29.73F
SALMON         PTCLDY    39  36  87 CALM      29.73F
BOISE          CLOUDY    46  40  79 SW6       29.71S
SPOKANE        CLOUDY    43  37  79 S12       29.70F
$$

REGIONAL REPORTS...ALBERTA

CITY           SKY/WX    TMP DP  RH WIND       PRES   REMARKS
EDMONTON       CLOUDY    32  30  93 E3        29.73S
CALGARY        DRIZZLE   34  32  93 E6        29.66S FOG     WCI  29
LETHBRIDGE     CLOUDY    41  39  93 NE7       29.64S
MEDICINE HAT   LGT RAIN  41  39  93 NW5       29.64S
WATERTON GATE    N/A     39  28  65 SW13        N/A  WCI  32
CARDSTON         N/A     32  34 100 NW3         N/A
MILK RIVER       N/A     36  34  93 NW7         N/A  WCI  30
$$

REGIONAL REPORTS...SASKATCHEWAN

CITY           SKY/WX    TMP DP  RH WIND       PRES   REMARKS
SWIFT CURRENT  CLOUDY    30  30 100 E12       29.68S FOG     WCI  21
REGINA         LGT SNOW  27  25  93 E16G23    29.81F WCI  14
SASKATOON      CLOUDY    30  28  93 E17       29.84F WCI  18
CYPRESS HILLS    N/A     34  32  93 SW3         N/A
VAL MARIE        N/A     32  32 100 SE5         N/A
ASSINIBOIA       N/A     34  32  93 E6          N/A  WCI  29
$$




USA.gov is the U.S. government's official web portal to all federal, state and local government web resources and services.